| time (UTC) | temp C | wind direction | speed KPH | gust KPH | rain 1hr cm | rain 24hr cm | rain mn cm | humidity % | barometer mb |
| 20260502234553 | 17 | 107 | 1.6 | 8.0 | 0.00 | 0.00 | 0.00 | 64 | 1011.7 |
| 20260502233051 | 17 | 92 | 1.6 | 8.0 | 0.00 | 0.00 | 0.00 | 64 | 1011.8 |
| 20260502231550 | 17 | 65 | 3.2 | 8.0 | 0.00 | 0.00 | 0.00 | 63 | 1011.9 |
| 20260502230048 | 17 | 74 | 1.6 | 4.8 | 0.00 | 0.00 | 0.00 | 65 | 1012.2 |
| 20260502224544 | 17 | 44 | 1.6 | 8.0 | 0.00 | 0.00 | 0.00 | 66 | 1012.6 |
| 20260502223042 | 17 | 92 | 3.2 | 8.0 | 0.00 | 0.00 | 0.00 | 65 | 1012.8 |
| 20260502221544 | 16 | 67 | 0.0 | 4.8 | 0.00 | 0.00 | 0.00 | 67 | 1013.0 |
| 20260502220040 | 16 | 22 | 3.2 | 8.0 | 0.00 | 0.00 | 0.00 | 66 | 1013.2 |
| 20260502214547 | 16 | 90 | 1.6 | 8.0 | 0.00 | 0.00 | 0.00 | 65 | 1013.2 |
| 20260502213039 | 16 | 86 | 1.6 | 9.7 | 0.00 | 0.00 | 0.00 | 64 | 1013.3 |
| 20260502211535 | 16 | 98 | 1.6 | 8.0 | 0.00 | 0.00 | 0.00 | 63 | 1013.5 |
| 20260502210034 | 17 | 108 | 4.8 | 11.3 | 0.00 | 0.00 | 0.00 | 62 | 1013.7 |
| 20260502204531 | 16 | 88 | 1.6 | 9.7 | 0.00 | 0.00 | 0.00 | 63 | 1013.9 |
| 20260502203028 | 16 | 5 | 1.6 | 6.4 | 0.00 | 0.00 | 0.00 | 65 | 1014.0 |
| 20260502201526 | 15 | 16 | 3.2 | 12.9 | 0.00 | 0.00 | 0.00 | 65 | 1014.3 |
| 20260502200023 | 15 | 89 | 1.6 | 8.0 | 0.00 | 0.00 | 0.00 | 65 | 1014.5 |
| 20260502194526 | 15 | 86 | 3.2 | 9.7 | 0.00 | 0.00 | 0.00 | 66 | 1014.8 |
| 20260502193018 | 14 | 299 | 0.0 | 6.4 | 0.00 | 0.00 | 0.00 | 65 | 1015.0 |
| 20260502191515 | 14 | 55 | 3.2 | 9.7 | 0.00 | 0.00 | 0.00 | 66 | 1014.8 |
| 20260502190015 | 13 | 5 | 1.6 | 11.3 | 0.00 | 0.00 | 0.00 | 66 | 1015.0 |
| 20260502184514 | 13 | 86 | 1.6 | 9.7 | 0.00 | 0.00 | 0.00 | 65 | 1015.2 |
| 20260502183010 | 13 | 60 | 3.2 | 9.7 | 0.00 | 0.00 | 0.00 | 65 | 1015.5 |
| 20260502181508 | 13 | 302 | 0.0 | 6.4 | 0.00 | 0.00 | 0.00 | 65 | 1015.5 |
| 20260502163058 | 11 | 75 | 3.2 | 8.0 | 0.00 | 0.00 | 0.00 | 63 | 1015.8 |
| 20260502161553 | 11 | 91 | 1.6 | 8.0 | 0.00 | 0.00 | 0.00 | 62 | 1016.0 |
| 20260502151558 | 9 | 307 | 0.0 | 4.8 | 0.00 | 0.00 | 0.00 | 58 | 1015.9 |
| 20260502150103 | 9 | 304 | 0.0 | 3.2 | 0.00 | 0.00 | 0.00 | 60 | 1015.8 |
| 20260502123056 | 8 | 314 | 0.0 | 1.6 | 0.00 | 0.00 | 0.00 | 59 | 1015.9 |
| 20260502121540 | 8 | 313 | 0.0 | 1.6 | 0.00 | 0.00 | 0.00 | 61 | 1015.9 |
| 20260502114543 | 8 | 303 | 0.0 | 3.2 | 0.00 | 0.00 | 0.00 | 61 | 1015.8 |
| 20260502113042 | 8 | 304 | 0.0 | 0.0 | 0.00 | 0.00 | 0.00 | 63 | 1015.8 |
| 20260502111541 | 9 | 304 | 0.0 | 0.0 | 0.00 | 0.00 | 0.00 | 65 | 1015.7 |
| 20260502110038 | 9 | 304 | 0.0 | 0.0 | 0.00 | 0.00 | 0.00 | 67 | 1015.9 |
| 20260502104537 | 9 | 304 | 0.0 | 0.0 | 0.00 | 0.00 | 0.00 | 68 | 1015.6 |
| 20260502103029 | 10 | 304 | 0.0 | 0.0 | 0.00 | 0.00 | 0.00 | 69 | 1015.8 |
| 20260502101528 | 10 | 304 | 0.0 | 4.8 | 0.00 | 0.00 | 0.00 | 69 | 1015.7 |
| 20260502091526 | 10 | 257 | 0.0 | 6.4 | 0.00 | 0.00 | 0.00 | 70 | 1016.0 |
| 20260502071508 | 11 | 305 | 1.6 | 8.0 | 0.00 | 0.00 | 0.00 | 69 | 1016.5 |
| 20260502070006 | 11 | 286 | 0.0 | 8.0 | 0.00 | 0.00 | 0.00 | 69 | 1016.8 |
| 20260502064501 | 11 | 280 | 1.6 | 4.8 | 0.00 | 0.00 | 0.00 | 69 | 1016.7 |
| 20260502063057 | 11 | 248 | 1.6 | 4.8 | 0.00 | 0.00 | 0.00 | 69 | 1016.7 |
| 20260502061553 | 11 | 273 | 0.0 | 8.0 | 0.00 | 0.00 | 0.00 | 69 | 1016.6 |
| 20260502060054 | 11 | 264 | 1.6 | 6.4 | 0.00 | 0.00 | 0.00 | 69 | 1016.7 |
| 20260502054544 | 11 | 240 | 0.0 | 8.0 | 0.00 | 0.00 | 0.00 | 69 | 1016.7 |
| 20260502053046 | 11 | 46 | 0.0 | 3.2 | 0.00 | 0.00 | 0.00 | 69 | 1016.6 |
| 20260502051539 | 11 | 39 | 0.0 | 4.8 | 0.00 | 0.00 | 0.00 | 70 | 1016.4 |
| 20260502050030 | 11 | 38 | 0.0 | 3.2 | 0.00 | 0.00 | 0.00 | 70 | 1016.3 |
| 20260502044525 | 11 | 34 | 0.0 | 3.2 | 0.00 | 0.00 | 0.00 | 71 | 1016.1 |
| 20260502043021 | 11 | 233 | 1.6 | 11.3 | 0.00 | 0.00 | 0.00 | 71 | 1016.0 |
| 20260502041518 | 12 | 163 | 0.0 | 3.2 | 0.00 | 0.00 | 0.00 | 71 | 1015.8 |
| 20260502040021 | 12 | 58 | 0.0 | 6.4 | 0.00 | 0.00 | 0.00 | 71 | 1015.6 |
| 20260502034508 | 12 | 309 | 0.0 | 9.7 | 0.00 | 0.00 | 0.00 | 71 | 1015.4 |
| 20260502033005 | 13 | 221 | 1.6 | 8.0 | 0.00 | 0.00 | 0.00 | 69 | 1015.3 |
| 20260502031603 | 13 | 301 | 1.6 | 16.1 | 0.00 | 0.00 | 0.00 | 68 | 1015.1 |
| 20260502030100 | 13 | 250 | 1.6 | 9.7 | 0.00 | 0.00 | 0.00 | 67 | 1014.9 |
| 20260502024551 | 14 | 286 | 1.6 | 9.7 | 0.00 | 0.00 | 0.00 | 67 | 1014.7 |
| 20260502023106 | 15 | 257 | 0.0 | 4.8 | 0.00 | 0.00 | 0.00 | 66 | 1014.5 |
| 20260502021544 | 15 | 257 | 4.8 | 12.9 | 0.00 | 0.00 | 0.00 | 66 | 1014.5 |
| 20260502020038 | 16 | 292 | 4.8 | 12.9 | 0.00 | 0.00 | 0.00 | 65 | 1014.5 |
| 20260502014539 | 17 | 284 | 3.2 | 12.9 | 0.00 | 0.00 | 0.00 | 63 | 1014.5 |
| 20260502013028 | 17 | 280 | 1.6 | 8.0 | 0.00 | 0.00 | 0.00 | 62 | 1014.4 |
| 20260502011525 | 18 | 309 | 3.2 | 9.7 | 0.00 | 0.00 | 0.00 | 61 | 1014.3 |
| 20260502010020 | 18 | 275 | 4.8 | 14.5 | 0.00 | 0.00 | 0.00 | 61 | 1014.3 |
| 20260502004515 | 19 | 294 | 4.8 | 11.3 | 0.00 | 0.00 | 0.00 | 57 | 1014.3 |
| 20260502003011 | 20 | 255 | 1.6 | 9.7 | 0.00 | 0.00 | 0.00 | 57 | 1014.3 |
| 20260502001508 | 20 | 290 | 3.2 | 8.0 | 0.00 | 0.00 | 0.00 | 56 | 1014.1 |
| 20260502000002 | 21 | 302 | 3.2 | 9.7 | 0.00 | 0.00 | 0.00 | 55 | 1014.1 |